THOR ABLESTAR DEB, 516

Orbit data source: Space-Track

THOR ABLESTAR DEB, 516 is space debris in LEO originally from a launch on Thu, 29 Jun 1961 UTC launched from the Air Force Eastern Test Range (AFETR). Debris objects in space refer to the collection of defunct objects orbiting the Earth. Examples of debris include non-operational satellites, rocket bodies, and fragments generated from explosions, collisions, or faulty payload assembly.

Loading next visibility...
Identifier
516, 1961-015FT
Orbit
LEO
Country
Flag of USUS
Related business
Manufacturer
Unknown
Mission
Spacecraft
Bus & Motor
Unknown
Mass
Unknown
Launch date (UTC)
1961-06-29 (64 years ago)
Launch vehicle
Unknown
Launch site
Air Force Eastern Test Range (AFETR)
Object type
Payload
Rocket body
Debris
Shape & HBR
Unknown shape, 0.1 m
Radar Cross Section
Medium (>0.1 m² and <1 m²)

Expand to show TLE details & history
Last TLE update: 12 hours ago

TLE from 12 hours ago
0 THOR ABLESTAR DEB
1 00516U 61015FT  25346.80758702  .00000128  00000-0  15794-3 0  9992
2 00516  65.9946 258.5389 0089722 244.0972 115.0832 13.92688330262439
Epoch: 2025-12-12T19:22Z
TLE epoch observation values (Epoch: 2025-12-12T19:22:55.518Z)
Latitude
-0.00006°
Longitude
-113.93636°
Altitude
949.479 km
Speed
7.363 km/s
True Right ascension
17h 14m 09s
True Declination
0° 00' 00"
Sunlit
Object was in daylight at epoch
Visualization orbit readout
Latitude
Unknown
Longitude
Unknown
Altitude
Unknown
Speed
Unknown
Apparent Right ascension
Unknown
Apparent Declination
Unknown
Sunlit
N/A
Visualization observer readout
Local Sidereal Time
05:21:42
Azimuth
Unknown
Elevation
Unknown
Doppler factor
Unknown
Orbital elements
Apogee altitude
983.17 km
Perigee altitude
852.25 km
Semi-major axis
7,295.847 km
Eccentricity
0.00897
Inclination
65.9946°
RAAN
258.5389°
Arg. of periapsis
244.0972°
True anomaly
116.00993°
Mean anomaly
115.0832°
Eccentric anomaly
115.54701°
Mean motion
3.48281 °/min
Orbital period
103.36 mins
BSTAR
0.00015794
Loading maneuver chart data...
Computing Atmospheric mass density...
Loading historical data...
Loading historical data...
Loading historical data...
Loading historical data...
Loading historical data...
Loading historical data...
Loading historical data...

Documentation

Showing up to 5 results
|